When you browse on this site, cookies collect data to enhance your experience and personalize the content and advertising you see.
Visit our Privacy Policy to learn more. By continuing to use the site, you agree to this use of cookies and data.
  • In Austria
  • List of Countries
  • For 7 days
  • Water Temperature
  • Weather Map
  • News
  • Weather Widgets
  • user-avatar
    Login

    Hourly Weather Moung

    Today, 27 January, Monday

    Time Temperature Precipitation Wind Pressure Humidity
    00:00 +27°C° 0 mm 3 mps 757 mmHg 73%
    01:00 +26°C° 0 mm 3 mps 757 mmHg 76%
    02:00 +26°C° 0 mm 3 mps 756 mmHg 80%
    03:00 +25°C° 0 mm 2 mps 756 mmHg 84%
    04:00 +25°C° 0 mm 2 mps 756 mmHg 88%
    05:00 +24°C° 0 mm 2 mps 756 mmHg 89%
    06:00 +24°C° 0 mm 2 mps 757 mmHg 89%
    07:00 +25°C° 0 mm 3 mps 757 mmHg 91%
    08:00 +27°C° 0 mm 3 mps 758 mmHg 81%
    09:00 +29°C° 0 mm 3 mps 758 mmHg 71%
    10:00 +32°C° 0 mm 4 mps 758 mmHg 61%
    11:00 +33°C° 0 mm 4 mps 758 mmHg 54%
    12:00 +35°C° 0 mm 4 mps 757 mmHg 48%
    13:00 +36°C° 0 mm 4 mps 756 mmHg 41%
    14:00 +36°C° 0 mm 4 mps 755 mmHg 40%
    15:00 +36°C° 0 mm 4 mps 755 mmHg 38%
    16:00 +36°C° 0 mm 4 mps 754 mmHg 37%
    17:00 +34°C° 0 mm 4 mps 754 mmHg 43%
    18:00 +33°C° 0 mm 3 mps 755 mmHg 49%
    19:00 +30°C° 0 mm 3 mps 755 mmHg 55%
    20:00 +29°C° 0 mm 3 mps 756 mmHg 59%
    21:00 +28°C° 0 mm 4 mps 756 mmHg 64%
    22:00 +27°C° 0 mm 4 mps 757 mmHg 69%
    23:00 +27°C° 0 mm 4 mps 757 mmHg 73%

    Tomorrow, 28 January, Tuesday

    Time Temperature Precipitation Wind Pressure Humidity
    00:00 +26°C° 0 mm 3 mps 757 mmHg 78%
    01:00 +26°C° 0 mm 3 mps 757 mmHg 82%
    02:00 +25°C° 0 mm 3 mps 757 mmHg 84%
    03:00 +24°C° 0 mm 2 mps 756 mmHg 85%
    04:00 +24°C° 0 mm 2 mps 756 mmHg 87%
    05:00 +24°C° 0 mm 2 mps 757 mmHg 87%
    06:00 +24°C° 0 mm 2 mps 757 mmHg 88%
    07:00 +24°C° 0 mm 2 mps 758 mmHg 88%
    08:00 +26°C° 0 mm 2 mps 758 mmHg 80%
    09:00 +28°C° 0 mm 3 mps 758 mmHg 71%
    10:00 +30°C° 0 mm 3 mps 759 mmHg 62%
    11:00 +31°C° 0 mm 3 mps 758 mmHg 55%
    12:00 +34°C° 0 mm 3 mps 757 mmHg 48%
    13:00 +35°C° 0 mm 3 mps 757 mmHg 41%
    14:00 +35°C° 0 mm 3 mps 756 mmHg 39%
    15:00 +36°C° 0 mm 3 mps 755 mmHg 37%
    16:00 +36°C° 0 mm 3 mps 754 mmHg 35%
    17:00 +34°C° 0 mm 3 mps 755 mmHg 39%
    18:00 +31°C° 0 mm 3 mps 755 mmHg 44%
    19:00 +30°C° 0 mm 3 mps 756 mmHg 48%
    20:00 +29°C° 0 mm 3 mps 757 mmHg 55%
    21:00 +28°C° 0 mm 3 mps 757 mmHg 61%
    22:00 +27°C° 0 mm 3 mps 758 mmHg 67%
    23:00 +26°C° 0 mm 3 mps 758 mmHg 73%

    Day after tomorrow, 29 January, Wednesday

    Time Temperature Precipitation Wind Pressure Humidity
    00:00 +26°C° 0 mm 3 mps 758 mmHg 79%
    01:00 +25°C° 0 mm 3 mps 758 mmHg 85%
    02:00 +25°C° 0 mm 3 mps 758 mmHg 87%
    03:00 +24°C° 0 mm 3 mps 758 mmHg 89%
    04:00 +24°C° 0 mm 3 mps 757 mmHg 90%
    05:00 +24°C° 0 mm 2 mps 758 mmHg 90%
    06:00 +24°C° 0 mm 2 mps 758 mmHg 90%
    07:00 +24°C° 0 mm 2 mps 759 mmHg 90%
    08:00 +26°C° 0 mm 2 mps 759 mmHg 80%
    09:00 +28°C° 0 mm 2 mps 759 mmHg 69%
    10:00 +30°C° 0 mm 2 mps 760 mmHg 59%
    11:00 +32°C° 0 mm 2 mps 759 mmHg 52%
    12:00 +34°C° 0 mm 2 mps 758 mmHg 45%
    13:00 +35°C° 0 mm 1 mps 757 mmHg 39%
    14:00 +35°C° 0 mm 1 mps 756 mmHg 37%
    15:00 +36°C° 0 mm 1 mps 756 mmHg 35%
    16:00 +37°C° 0 mm 2 mps 755 mmHg 33%
    17:00 +34°C° 0 mm 1 mps 755 mmHg 36%
    18:00 +32°C° 0 mm 1 mps 756 mmHg 40%
    19:00 +31°C° 0 mm 1 mps 756 mmHg 43%
    20:00 +30°C° 0 mm 2 mps 757 mmHg 46%
    21:00 +29°C° 0 mm 2 mps 757 mmHg 49%
    22:00 +29°C° 0 mm 2 mps 758 mmHg 52%
    23:00 +28°C° 0 mm 2 mps 758 mmHg 61%

    30 January, Thursday

    Time Temperature Precipitation Wind Pressure Humidity
    00:00 +27°C° 0 mm 3 mps 758 mmHg 70%
    01:00 +26°C° 0 mm 4 mps 758 mmHg 79%
    02:00 +26°C° 0.3 mm 4 mps 758 mmHg 83%
    03:00 +25°C° 0.3 mm 4 mps 757 mmHg 87%
    04:00 +25°C° 0.3 mm 3 mps 757 mmHg 92%
    05:00 +25°C° 0.2 mm 3 mps 757 mmHg 91%
    06:00 +25°C° 0.2 mm 2 mps 758 mmHg 90%
    07:00 +25°C° 0.2 mm 2 mps 758 mmHg 89%
    08:00 +27°C° 0 mm 2 mps 758 mmHg 79%
    09:00 +29°C° 0 mm 2 mps 759 mmHg 69%
    10:00 +31°C° 0 mm 2 mps 759 mmHg 59%
    11:00 +32°C° 0.1 mm 2 mps 758 mmHg 55%
    12:00 +34°C° 0.1 mm 2 mps 757 mmHg 51%
    13:00 +34°C° 0.1 mm 2 mps 756 mmHg 47%
    14:00 +34°C° 0 mm 2 mps 756 mmHg 48%
    15:00 +34°C° 0 mm 2 mps 756 mmHg 49%
    16:00 +32°C° 0 mm 2 mps 755 mmHg 50%
    17:00 +31°C° 0 mm 2 mps 755 mmHg 52%
    18:00 +30°C° 0 mm 1 mps 756 mmHg 54%
    19:00 +30°C° 0 mm 1 mps 756 mmHg 55%
    20:00 +29°C° 0 mm 2 mps 757 mmHg 58%
    21:00 +28°C° 0 mm 2 mps 757 mmHg 60%
    22:00 +28°C° 0 mm 2 mps 758 mmHg 62%
    23:00 +27°C° 0.4 mm 2 mps 758 mmHg 69%

    31 January, Friday

    Time Temperature Precipitation Wind Pressure Humidity
    00:00 +26°C° 0.4 mm 2 mps 758 mmHg 76%
    01:00 +25°C° 0.4 mm 2 mps 758 mmHg 83%
    02:00 +25°C° 0.2 mm 2 mps 758 mmHg 83%
    03:00 +25°C° 0.2 mm 1 mps 757 mmHg 83%
    04:00 +25°C° 0.2 mm 1 mps 757 mmHg 83%
    05:00 +25°C° 0 mm 1 mps 758 mmHg 82%
    06:00 +25°C° 0 mm 1 mps 758 mmHg 81%
    07:00 +25°C° 0 mm 1 mps 759 mmHg 81%
    08:00 +26°C° 0 mm 1 mps 759 mmHg 75%
    09:00 +26°C° 0 mm 1 mps 759 mmHg 70%
    10:00 +27°C° 0 mm 2 mps 760 mmHg 65%
    11:00 +28°C° 0 mm 1 mps 759 mmHg 60%
    12:00 +30°C° 0 mm 1 mps 758 mmHg 55%
    13:00 +32°C° 0 mm 1 mps 757 mmHg 50%
    14:00 +32°C° 0 mm 1 mps 757 mmHg 48%
    15:00 +33°C° 0 mm 1 mps 756 mmHg 46%
    16:00 +33°C° 0 mm 1 mps 756 mmHg 45%
    17:00 +32°C° 0 mm 2 mps 756 mmHg 50%
    18:00 +30°C° 0 mm 2 mps 756 mmHg 54%
    19:00 +29°C° 0 mm 2 mps 756 mmHg 59%
    20:00 +28°C° 0 mm 3 mps 757 mmHg 62%
    21:00 +27°C° 0 mm 3 mps 757 mmHg 65%
    22:00 +27°C° 0 mm 3 mps 758 mmHg 69%
    23:00 +26°C° 0 mm 3 mps 758 mmHg 72%

    1 February, Saturday

    Time Temperature Precipitation Wind Pressure Humidity
    00:00 +25°C° 0 mm 3 mps 758 mmHg 75%
    01:00 +25°C° 0 mm 2 mps 758 mmHg 78%
    02:00 +25°C° 0 mm 2 mps 758 mmHg 79%
    03:00 +24°C° 0 mm 2 mps 758 mmHg 80%
    04:00 +24°C° 0 mm 1 mps 758 mmHg 80%
    05:00 +24°C° 0 mm 1 mps 758 mmHg 81%
    06:00 +24°C° 0 mm 1 mps 758 mmHg 82%
    07:00 +24°C° 0 mm 1 mps 759 mmHg 82%
    08:00 +26°C° 0 mm 1 mps 759 mmHg 77%
    09:00 +27°C° 0 mm 1 mps 759 mmHg 72%
    10:00 +28°C° 0 mm 1 mps 760 mmHg 66%
    11:00 +30°C° 0 mm 1 mps 759 mmHg 60%
    12:00 +31°C° 0 mm 1 mps 758 mmHg 53%
    13:00 +34°C° 0 mm 2 mps 757 mmHg 46%
    14:00 +33°C° 0 mm 1 mps 757 mmHg 43%
    15:00 +34°C° 0 mm 1 mps 756 mmHg 40%
    16:00 +35°C° 0 mm 1 mps 755 mmHg 36%
    17:00 +33°C° 0 mm 1 mps 756 mmHg 40%
    18:00 +32°C° 0 mm 1 mps 756 mmHg 43%
    19:00 +30°C° 0 mm 1 mps 756 mmHg 47%
    20:00 +29°C° 0 mm 2 mps 757 mmHg 53%
    21:00 +28°C° 0 mm 4 mps 757 mmHg 59%
    22:00 +27°C° 0 mm 5 mps 758 mmHg 65%
    23:00 +26°C° 0 mm 4 mps 758 mmHg 68%
    Show more